Content
SEND FEEDBACK

Daily
Averages
Monthly
Summary
United States of America

CALIFORNIA, MISSOURI


Home > North America > United States > Missouri
Elevation: 849 feet     Latitude: 38 37N     Longitude: 092 34W

WEATHER
 
SELECT A DAY
Number of Records: 196,500;   Date Range: 1/2/95 - 12/26/14
 
SHARE

PRINT THIS DATA

[ ← Previous Day ]
WEATHER ALMANAC - JANUARY 31, 2013
[ Next Day → ]
[ °C ]   °F
Weather ElementAverageHighLow
Temperature24.5 °F33.1 °F (11:53 am)12 °F (10:53 pm)
Dewpoint11.1 °F19.4 °F (10:28 am)-2 °F (10:53 pm)
Humidity57.1 %64 % (1:17 am)47 % (2:53 pm)
Barometer30.14 in30.46 in (11:53 pm)29.97 in (2:53 am)
Wind Speed14.8 mph23 mph (2:53 pm)
Wind Gust33.4 mph (3:53 pm)
Weather ElementAverage
Visibility10 mi
Wind DirectionWNW (283.3 °)

Weather ElementTotal
Precipitation---
Heating Degree Days42.5 (Base 65)
Averaged from 24 records on January 31, 2013
WEATHER CONDITIONS BREAKOUT
WIND DIRECTION BREAKOUT
WEATHER BY HOUR - JANUARY 31, 2013
[ °C ]   °F
Local TimeTemperatureDewpointHumidityBarometerVisibilityWind DirectionWind SpeedGust SpeedPrecipitationEventsConditions
1:17 AM28.4 °F17.6 °F64 %29.98 in10.0 miWest (270°)11.5 mphOvercast
1:46 AM26.6 °F15.8 °F64 %29.99 in10.0 miWest (270°)20.7 mphOvercast
1:53 AM27.0 °F15.1 °F61 %29.98 in10.0 miWNW (290°)18.4 mph23.0 mphOvercast
2:53 AM27.0 °F12.9 °F56 %29.97 in10.0 miWSW (250°)10.4 mphMostly Cloudy
3:53 AM26.1 °F14.0 °F60 %29.97 in10.0 miWest (260°)9.2 mphOvercast
5:53 AM27.0 °F15.1 °F61 %29.97 in10.0 miWest (260°)6.9 mphOvercast
6:53 AM27.0 °F16.0 °F63 %29.98 in10.0 miWSW (240°)6.9 mphOvercast
7:53 AM28.0 °F17.1 °F63 %30.01 in10.0 miWSW (250°)8.1 mphOvercast
8:53 AM28.9 °F18.0 °F64 %30.04 in10.0 miWest (260°)9.2 mphOvercast
9:53 AM30.9 °F19.0 °F61 %30.05 in10.0 miWNW (290°)16.1 mphMostly Cloudy
10:21 AM30.2 °F17.6 °F60 %30.07 in10.0 miWNW (300°)15.0 mphMostly Cloudy
10:28 AM32.0 °F19.4 °F60 %30.06 in10.0 miWNW (300°)12.7 mphScattered Clouds
10:53 AM32.0 °F19.0 °F59 %30.06 in10.0 miWNW (300°)13.8 mphMostly Cloudy
11:53 AM33.1 °F18.0 °F54 %30.06 in10.0 miWNW (300°)13.8 mph21.9 mphOvercast
12:53 PM30.0 °F12.9 °F49 %30.08 in10.0 miWNW (300°)19.6 mph31.1 mphOvercast
2:53 PM26.1 °F8.1 °F47 %30.16 in10.0 miWNW (290°)23.0 mph28.8 mphOvercast
3:53 PM23.0 °F6.1 °F48 %30.21 in10.0 miWNW (300°)21.9 mph33.4 mphScattered Clouds
4:53 PM19.9 °F3.9 °F50 %30.24 in10.0 miWNW (300°)20.7 mph28.8 mphClear
6:53 PM17.1 °F3.0 °F54 %30.32 in10.0 miWNW (300°)17.3 mph27.6 mphMostly Cloudy
7:53 PM16.0 °F1.0 °F52 %30.35 in10.0 miWNW (290°)23.0 mph28.8 mphPartly Cloudy
8:53 PM14.0 °F0.0 °F54 %30.40 in10.0 miNW (310°)13.8 mph18.4 mphClear
9:53 PM12.9 °F-0.9 °F54 %30.43 in10.0 miWNW (290°)16.1 mph21.9 mphClear
10:53 PM12.0 °F-2.0 °F53 %30.45 in10.0 miWNW (290°)13.8 mphClear
11:53 PM12.0 °F0.0 °F59 %30.46 in10.0 miWNW (290°)13.8 mphClear
Hourly data recorded from KJEF, located miles away from California, Missouri







STORIES FROM OUR PARTNERS